GW7202 Weather Reports


time (UTC)temp
C
wind
direction
speed
KPH
gust
KPH
rain 1hr
cm
rain 24hr
cm
rain mn
cm
humidity
%
barometer
mb
20260508114521 8 163 3.2 4.8 0.00 0.03 0.00 79 1012.9
20260508113018 7 150 0.0 4.8 0.00 0.03 0.00 81 1012.8
20260508111516 7 175 1.6 3.2 0.00 0.03 0.00 80 1012.5
20260508110013 7 158 1.6 3.2 0.00 0.03 0.00 80 1012.6
20260508104510 7 139 1.6 3.2 0.00 0.03 0.00 79 1012.7
20260508103027 8 207 1.6 4.8 0.00 0.03 0.00 77 1012.7
20260508101525 8 203 1.6 8.0 0.00 0.03 0.00 76 1012.8
20260508100024 8 138 4.8 11.3 0.00 0.03 0.00 75 1012.9
20260508094520 8 198 4.8 8.0 0.00 0.03 0.00 76 1012.9
20260508093015 8 195 4.8 9.7 0.00 0.03 0.00 75 1012.9
20260508091521 8 176 3.2 6.4 0.00 0.03 0.00 76 1012.9
20260508090011 8 180 3.2 9.7 0.00 0.03 0.00 75 1013.0
20260508084526 9 186 3.2 8.0 0.00 0.03 0.00 74 1013.0
20260508083028 9 155 4.8 8.0 0.00 0.03 0.00 73 1013.2
20260508081524 9 200 3.2 8.0 0.00 0.03 0.00 74 1013.3
20260508080026 8 167 3.2 8.0 0.00 0.03 0.00 75 1013.2
20260508074522 8 169 1.6 4.8 0.00 0.03 0.00 77 1013.4
20260508073021 7 154 0.0 3.2 0.00 0.03 0.00 80 1013.4
20260508071514 7 166 0.0 0.0 0.00 0.03 0.00 83 1013.5
20260508070029 8 166 0.0 0.0 0.00 0.03 0.00 81 1013.6
20260508064529 8 166 0.0 0.0 0.00 0.03 0.00 77 1013.7
20260508063006 9 164 0.0 1.6 0.00 0.03 0.00 74 1013.9
20260508061505 9 154 0.0 3.2 0.00 0.03 0.00 71 1014.0
20260508060006 10 155 1.6 4.8 0.00 0.03 0.00 70 1014.0
20260508054509 10 167 0.0 3.2 0.00 0.03 0.00 70 1014.1
20260508053019 10 141 1.6 4.8 0.00 0.03 0.00 70 1014.2
20260508051526 10 203 1.6 6.4 0.00 0.03 0.00 70 1014.4
20260508050013 10 210 1.6 6.4 0.00 0.03 0.00 70 1014.4
20260508044507 10 165 3.2 6.4 0.00 0.03 0.03 72 1014.5
20260508043012 8 218 0.0 3.2 0.00 0.03 0.03 79 1014.7
20260508041507 7 162 0.0 1.6 0.00 0.03 0.03 85 1014.7
20260508040005 7 189 0.0 0.0 0.00 0.03 0.03 89 1014.8
20260508034529 7 189 0.0 1.6 0.00 0.03 0.03 88 1014.7
20260508033016 7 189 0.0 0.0 0.00 0.03 0.03 88 1014.7
20260508031519 7 189 0.0 0.0 0.00 0.03 0.03 87 1014.7
20260508030013 8 189 0.0 0.0 0.00 0.03 0.03 86 1014.6
20260508024511 8 189 0.0 0.0 0.00 0.03 0.03 84 1014.6
20260508023009 8 189 0.0 0.0 0.00 0.03 0.03 84 1014.5
20260508021504 9 189 0.0 0.0 0.00 0.03 0.03 81 1014.2
20260508020034 10 189 0.0 0.0 0.00 0.03 0.03 79 1014.1
20260508014522 10 189 0.0 0.0 0.00 0.03 0.03 75 1014.0
20260508013017 12 189 0.0 0.0 0.00 0.03 0.03 69 1013.9
20260508011519 13 189 0.0 0.0 0.00 0.03 0.03 60 1013.8
20260508010017 15 189 0.0 1.6 0.00 0.03 0.03 54 1013.7
20260508004510 16 166 1.6 3.2 0.00 0.03 0.03 45 1013.6
20260508003008 16 205 0.0 4.8 0.00 0.03 0.03 43 1013.4
20260508001525 17 194 1.6 4.8 0.00 0.03 0.03 42 1013.4
20260508000027 18 256 0.0 8.0 0.00 0.03 0.03 38 1013.4
20260507234531 19 172 4.8 12.9 0.00 0.03 0.03 38 1013.4
20260507233022 19 220 3.2 12.9 0.00 0.03 0.03 36 1013.5
20260507231517 19 195 4.8 11.3 0.00 0.03 0.03 37 1013.6
20260507230026 19 150 6.4 14.5 0.00 0.03 0.03 39 1013.7
20260507224513 19 186 9.7 16.1 0.00 0.03 0.03 36 1013.8
20260507223025 19 303 3.2 16.1 0.00 0.03 0.03 38 1013.9
20260507221526 18 139 4.8 11.3 0.00 0.03 0.03 35 1014.0
20260507220024 19 197 11.3 27.4 0.00 0.03 0.03 35 1014.0
20260507214526 19 245 6.4 17.7 0.00 0.03 0.03 36 1013.9
20260507213022 18 162 9.7 25.7 0.00 0.03 0.03 40 1014.0
20260507211519 18 219 3.2 12.9 0.00 0.03 0.03 37 1014.1
20260507210018 18 262 4.8 14.5 0.00 0.03 0.03 35 1014.3
20260507204510 18 202 6.4 16.1 0.00 0.03 0.03 39 1014.5
20260507203013 18 300 6.4 16.1 0.00 0.03 0.03 36 1014.6
20260507201507 18 267 6.4 20.9 0.00 0.03 0.03 35 1015.0
20260507200023 18 296 6.4 16.1 0.00 0.03 0.03 36 1015.3
20260507194524 17 271 3.2 14.5 0.00 0.03 0.03 37 1015.5
20260507193020 18 209 12.9 19.3 0.00 0.03 0.03 36 1015.5
20260507191520 18 210 8.0 20.9 0.00 0.03 0.03 36 1015.7
20260507190016 17 143 6.4 16.1 0.00 0.03 0.03 37 1015.7
20260507184528 17 259 9.7 19.3 0.00 0.03 0.03 36 1016.0
20260507183010 17 172 8.0 19.3 0.00 0.03 0.03 37 1016.1
20260507181506 17 160 4.8 17.7 0.00 0.03 0.03 34 1016.0
20260507180026 17 181 12.9 20.9 0.00 0.03 0.03 35 1016.2
20260507174527 17 287 4.8 19.3 0.00 0.03 0.03 34 1016.5
20260507173039 16 348 8.0 14.5 0.00 0.03 0.03 36 1016.6
20260507171518 16 56 3.2 14.5 0.00 0.03 0.03 40 1016.8
20260507170019 16 233 8.0 19.3 0.00 0.03 0.03 35 1017.0
20260507164512 16 213 8.0 16.1 0.00 0.03 0.03 37 1017.3
20260507163010 16 333 3.2 16.1 0.00 0.03 0.03 40 1017.5
20260507161528 16 237 3.2 14.5 0.00 0.03 0.03 43 1017.8
20260507160028 15 238 6.4 17.7 0.00 0.03 0.03 39 1017.8
20260507154522 15 141 6.4 12.9 0.00 0.03 0.03 45 1017.8
20260507153024 15 167 4.8 9.7 0.00 0.03 0.03 44 1017.9
20260507151529 15 205 6.4 14.5 0.00 0.03 0.03 45 1018.1
20260507150018 14 167 8.0 14.5 0.00 0.03 0.03 52 1018.2
20260507144517 13 179 3.2 11.3 0.00 0.03 0.03 54 1018.2
20260507143025 13 214 8.0 12.9 0.00 0.03 0.03 52 1018.2
20260507141527 12 230 3.2 9.7 0.00 0.03 0.03 59 1018.1
20260507140027 12 217 4.8 12.9 0.00 0.03 0.03 58 1018.3
20260507134522 11 158 4.8 11.3 0.00 0.03 0.03 58 1018.2
20260507133022 11 180 4.8 11.3 0.00 0.03 0.03 58 1018.3
20260507131521 10 160 4.8 11.3 0.00 0.03 0.03 63 1018.3
20260507130016 9 200 4.8 8.0 0.03 0.03 0.03 66 1018.3
20260507124516 8 163 3.2 6.4 0.03 0.03 0.03 71 1018.2
20260507123005 7 181 3.2 4.8 0.03 0.03 0.03 78 1018.2
20260507121506 6 229 0.0 1.6 0.03 0.03 0.03 95 1018.0
20260507120005 2 231 0.0 0.0 0.00 0.00 0.00 95 1017.8